Vorticity
6 6 6 6 6 6 5 5 5 5 5 5 6 5 5 5 5 6 6 6 6 6 6 6 7 8 8 8 8 7 7 7 6 6 6 5 3 4 5 5 4 5 4 4 4 3 2 2 2 2 2 2 3 2 3 6 8 6 5 4 3 2 1 2 3 6 3 1 10 7 7 8 1 6 6 -0 5 5 6 7 6 7 6 9 13 13 10 8
8 8 8 8 7 7 7 7 6 6 6 6 6 6 6 7 6 6 6 6 6 6 5 5 6 6 7 8 8 7 7 7 6 6 6 6 6 5 5 6 6 7 8 8 9 7 5 3 1 2 1 1 2 2 3 2 4 4 3 4 4 2 2 1 3 6 2 2 4 1 13 14 -2 3 7 1 3 7 8 6 7 5 4 9 11 11 8 8
9 9 9 9 9 9 9 9 8 6 6 6 6 6 7 7 7 7 8 8 7 7 6 5 5 5 6 7 8 8 7 7 7 6 6 6 7 6 6 6 6 6 7 7 8 9 8 6 4 2 1 1 3 4 3 2 3 4 4 4 1 3 3 3 6 3 3 11 4 -7 12 17 -3 1 10 4 2 7 7 5 9 5 2 9 10 10 8 8
7 8 9 10 9 9 9 9 9 8 7 6 6 6 7 7 8 8 8 8 9 9 8 8 7 5 5 5 6 7 9 8 7 7 6 6 6 6 6 6 7 6 6 6 6 7 7 8 8 5 4 2 2 4 3 4 4 3 5 4 3 4 4 5 4 1 3 8 7 2 12 16 4 6 10 4 3 6 6 4 10 9 3 7 10 9 8 8
7 8 8 9 9 9 9 9 9 8 7 6 5 5 6 7 8 9 9 9 9 9 10 10 9 8 7 6 5 6 9 8 7 8 7 6 6 5 6 5 6 6 6 7 7 6 6 6 6 6 7 5 2 1 2 3 2 2 3 3 6 5 5 5 -0 3 4 3 16 17 15 19 12 9 6 0 5 10 7 4 11 12 5 6 10 8 8 8
6 7 8 8 9 9 9 9 9 9 8 7 6 5 5 6 7 9 9 9 9 9 9 9 10 10 9 9 7 6 8 8 7 9 8 7 6 5 6 5 5 5 6 7 7 8 6 5 5 5 6 8 6 2 1 2 1 2 2 4 6 6 5 3 3 7 7 13 25 16 14 24 11 4 6 0 7 13 7 5 10 10 6 7 9 8 8 8
5 6 7 7 8 8 9 9 9 9 9 9 8 7 5 5 6 7 9 9 9 9 9 9 9 9 9 10 9 8 8 7 7 7 8 8 7 6 5 5 5 5 5 6 7 8 7 6 5 4 3 6 9 8 4 3 2 1 1 2 3 7 7 4 8 7 15 32 27 15 18 23 13 4 4 2 7 13 5 4 10 10 7 8 9 9 9 8
5 5 6 6 7 7 8 9 9 9 10 9 9 8 7 6 5 6 7 9 10 10 10 10 10 10 9 9 9 8 8 9 8 8 8 8 8 7 6 6 5 5 5 6 7 8 7 7 5 5 4 4 6 8 7 5 4 2 0 2 3 7 5 6 10 6 25 39 19 18 22 16 19 8 -3 1 6 10 6 3 8 11 8 7 8 9 9 10
4 5 5 6 6 7 7 8 9 9 10 10 9 9 9 8 7 7 6 7 9 9 10 10 10 10 10 10 9 9 9 9 9 10 10 10 9 7 7 7 6 6 6 6 8 8 6 6 5 5 5 5 5 5 6 6 6 6 4 4 2 0 -0 7 14 9 22 34 19 22 22 13 15 4 -3 4 6 9 8 3 6 10 9 5 7 9 9 11
5 5 5 5 6 6 7 8 8 8 9 10 9 9 8 8 8 8 7 6 7 8 9 9 10 10 11 11 10 10 11 10 9 10 10 11 10 9 8 7 8 8 7 7 7 6 4 4 6 6 6 5 7 5 4 6 7 9 9 8 5 2 3 6 16 15 14 30 35 27 22 15 6 -2 1 6 5 9 7 3 5 10 10 4 5 8 7 9
5 6 5 5 6 6 7 7 8 8 9 9 9 8 8 8 8 8 8 7 8 9 10 11 11 11 11 11 11 10 11 9 9 10 9 10 11 10 9 7 7 7 8 7 5 4 4 5 6 6 7 6 7 8 5 5 6 8 10 13 13 9 7 7 14 15 7 17 29 25 20 15 7 -0 -2 3 7 7 6 5 5 8 11 4 2 5 5 6
5 6 5 5 6 7 7 7 8 8 9 9 9 7 7 7 7 7 9 10 11 11 11 12 12 12 12 12 12 12 12 11 10 11 11 9 9 9 9 8 8 6 6 6 3 3 4 5 7 6 7 7 7 9 7 5 5 7 9 12 16 10 6 11 11 7 4 6 9 18 16 6 10 3 -7 2 8 6 8 8 6 7 10 6 2 4 5 5
6 6 5 6 7 7 8 8 8 8 8 9 8 7 7 7 7 8 10 11 12 13 13 13 13 13 13 13 14 14 14 15 13 13 14 12 10 10 9 9 9 8 6 5 3 3 5 6 6 7 7 7 7 9 9 7 6 7 9 11 14 8 4 14 13 1 4 5 0 14 11 -0 10 6 -1 7 8 7 8 8 9 6 8 7 3 4 5 5
6 6 6 7 7 7 8 8 7 8 8 9 8 7 7 7 8 10 12 12 13 14 15 14 13 14 14 13 13 14 14 16 17 15 16 16 14 12 10 9 9 10 7 6 5 5 7 7 6 7 8 7 8 10 9 8 7 8 10 12 12 7 4 13 18 7 5 3 -1 11 11 2 7 6 6 10 8 10 6 7 11 6 8 7 4 4 4 6
6 6 7 7 8 8 7 8 8 8 8 8 8 7 7 9 10 13 14 15 16 15 15 14 13 13 14 13 13 13 12 14 17 17 18 18 17 15 13 12 9 10 11 9 9 8 8 8 8 7 7 8 7 8 10 9 7 8 10 11 10 8 0 -1 8 10 8 4 -2 5 8 5 6 3 5 8 9 10 5 8 10 6 10 7 5 6 2 5
7 7 8 8 8 8 7 8 8 8 8 8 7 7 9 11 13 15 16 16 15 15 14 14 14 13 13 14 13 14 14 14 15 17 19 19 18 17 16 16 12 11 13 12 10 10 9 8 7 7 7 8 7 6 9 9 7 8 10 8 8 9 2 -5 0 6 7 8 4 3 5 8 9 6 5 5 9 10 5 8 8 6 9 8 7 7 4 4
7 8 8 8 8 8 8 8 8 8 8 8 8 8 10 13 15 16 15 15 14 14 14 13 14 14 13 13 13 14 14 13 13 14 16 17 18 18 18 22 19 13 12 12 11 10 10 8 7 8 7 7 8 6 9 12 11 12 11 6 4 9 9 3 4 4 2 7 11 7 4 5 6 6 6 3 6 12 8 5 8 7 6 10 9 5 5 3
8 9 9 9 8 8 8 8 8 8 8 8 9 10 12 14 15 15 13 13 13 13 13 12 12 12 11 11 12 13 13 13 12 11 13 16 17 18 19 23 25 20 13 12 13 10 9 9 9 8 7 7 7 7 13 16 12 10 8 5 3 6 7 1 3 6 2 1 5 5 4 3 2 5 6 3 4 11 11 5 6 8 4 7 12 7 5 4
9 9 9 9 8 8 8 8 8 8 8 9 10 11 14 15 15 15 12 10 11 11 10 9 10 10 9 11 11 11 11 12 12 10 10 12 13 15 17 21 26 26 20 14 13 11 10 10 10 8 8 11 9 9 15 13 7 6 5 6 5 4 6 -1 -4 7 9 4 4 3 6 7 3 3 3 3 5 5 10 11 7 8 6 4 9 10 8 7
9 9 9 8 7 7 8 8 8 8 9 10 11 14 16 15 15 14 11 10 8 8 9 10 12 12 10 10 10 9 9 11 11 8 7 7 7 9 12 16 21 26 24 18 13 12 11 10 11 9 8 11 10 10 13 8 7 9 6 8 7 5 9 1 -8 3 9 5 5 5 7 11 6 1 1 5 7 1 4 13 11 9 6 2 6 8 8 10
10 10 9 8 7 7 8 8 9 9 10 11 13 15 15 13 13 12 11 11 8 7 10 13 14 12 9 8 7 7 9 10 10 8 7 6 5 6 9 12 16 20 23 21 17 15 13 12 15 13 10 11 9 10 11 4 3 8 6 9 11 6 8 6 -6 1 9 2 2 4 2 7 6 2 4 6 7 4 2 6 9 12 10 3 4 6 4 9
9 9 9 8 7 7 8 9 9 10 11 12 13 14 14 12 11 11 11 11 9 9 13 14 12 8 7 11 10 6 8 11 10 10 8 7 7 5 6 8 13 17 21 24 22 19 18 18 19 17 12 10 9 9 9 5 4 8 5 7 12 8 8 9 1 2 7 -0 3 13 8 4 5 5 7 5 2 4 6 3 0 7 15 7 2 5 4 6
9 9 8 7 7 7 8 9 10 11 12 12 12 12 13 12 11 11 10 9 9 11 13 10 6 5 7 11 10 7 10 12 11 11 10 10 10 8 5 6 9 13 18 22 21 19 19 18 16 15 12 10 11 10 6 6 10 11 5 3 9 10 7 7 7 8 4 -4 3 15 15 8 2 1 9 11 4 3 8 8 -0 1 12 11 3 5 6 5
9 8 7 7 6 7 8 10 11 12 11 11 12 12 12 12 10 9 9 10 11 13 12 7 6 12 12 8 6 9 13 14 13 12 11 12 11 9 7 5 5 8 12 18 20 18 16 13 8 10 12 10 10 11 8 4 7 14 8 -0 5 10 7 2 8 16 5 -2 7 5 5 14 7 -3 8 18 12 6 6 6 1 -1 7 11 6 7 8 5
8 7 6 6 7 7 7 11 12 11 10 11 12 11 12 12 10 10 11 11 11 10 9 9 9 12 13 10 7 8 11 13 14 14 14 14 11 10 10 7 4 6 9 14 18 18 16 15 13 10 11 12 10 10 13 5 0 13 12 1 2 6 6 -0 2 16 11 6 18 5 -9 8 14 0 2 16 19 13 8 3 -0 -1 3 9 9 9 8 4
7 6 6 6 8 6 7 12 12 10 9 10 11 10 11 12 10 12 13 12 11 8 9 12 11 9 13 14 9 9 12 11 12 15 15 15 13 13 13 10 7 7 9 15 21 20 15 16 17 14 11 13 11 8 15 10 -2 11 16 5 4 4 5 3 -7 3 10 8 19 17 0 1 9 4 0 10 20 19 13 7 4 1 0 6 8 7 8 6
7 6 5 8 8 6 9 13 11 9 9 9 10 10 10 10 12 14 12 13 14 9 9 13 12 9 12 11 7 11 12 10 15 16 14 14 12 12 12 12 12 9 11 19 20 14 14 18 18 17 15 11 11 9 12 12 1 12 21 9 8 8 6 9 -2 -4 6 6 10 17 14 9 5 3 2 7 16 19 17 12 10 8 5 7 8 6 8 8
7 6 6 9 9 7 10 12 10 10 9 8 9 11 9 8 13 14 10 14 17 11 9 10 10 10 9 8 9 12 10 14 22 17 12 14 10 10 12 13 15 14 14 19 15 10 16 22 17 15 15 10 13 13 12 12 1 7 21 11 6 11 6 7 2 -4 1 5 7 10 12 13 9 3 0 6 13 14 16 16 12 12 14 13 10 8 8 8
7 7 6 8 9 7 9 11 10 10 9 8 9 10 8 8 11 11 9 13 14 11 10 10 10 10 8 9 11 13 13 18 23 16 14 15 12 13 12 7 10 12 14 15 11 10 14 12 8 12 15 12 13 13 14 14 -3 -5 15 13 4 5 4 4 0 -2 3 4 5 10 11 10 12 7 -1 6 13 6 8 23 22 14 15 13 7 5 8 8
7 7 6 8 8 7 9 12 11 10 8 8 9 8 8 8 9 10 10 12 10 9 11 10 10 9 7 8 9 11 15 18 21 20 17 11 8 13 11 6 9 9 11 13 9 12 12 8 12 18 17 15 15 14 13 10 -3 -8 6 13 7 0 -1 1 -3 -4 3 5 5 10 12 9 9 11 6 8 15 5 -1 18 31 23 14 10 6 4 7 9
7 7 7 8 7 6 10 12 10 10 9 8 8 8 8 8 8 8 8 10 10 9 9 8 9 9 8 8 7 8 12 16 21 20 15 9 8 12 10 6 7 7 9 13 12 14 13 12 19 20 17 17 17 19 18 10 3 -4 -4 9 15 5 5 8 4 2 3 4 7 9 10 9 6 8 10 9 14 10 -1 4 20 26 19 13 12 11 10 12
9 8 8 9 7 6 9 11 11 9 8 8 8 7 8 8 8 8 7 11 11 7 7 9 9 8 8 7 6 7 9 11 16 18 14 14 13 9 7 4 6 10 9 11 16 17 12 10 15 17 16 15 9 13 21 15 11 2 -10 3 11 3 12 13 6 15 14 4 7 7 6 8 5 3 8 10 11 13 7 1 6 16 19 18 18 18 18 19
11 10 10 9 8 7 8 11 11 9 7 8 8 7 8 8 7 7 8 11 9 4 7 10 7 6 7 6 5 10 10 6 11 17 13 14 14 9 6 4 5 13 10 8 14 14 11 12 16 16 13 12 8 10 16 10 13 12 -6 -4 6 2 15 14 -3 4 9 1 4 5 5 10 7 3 6 9 12 12 11 9 6 6 10 12 12 12 17 25
10 10 10 11 10 8 7 10 10 8 8 8 7 7 8 8 6 6 10 10 5 3 8 7 5 6 6 7 8 11 12 7 10 17 10 8 13 11 9 8 9 14 12 10 13 11 10 14 17 13 7 11 12 10 12 2 4 19 5 -3 6 4 7 9 2 9 10 -0 -1 4 11 13 4 3 6 5 9 12 11 13 12 8 7 6 3 1 6 24
9 9 10 11 12 10 8 9 10 9 8 8 8 7 8 9 6 4 10 11 5 5 8 6 6 5 4 9 10 9 12 10 10 12 6 5 11 11 12 11 9 14 16 14 16 13 11 11 12 9 6 14 9 2 11 1 -7 15 14 -3 4 8 2 -3 4 23 21 2 -4 -1 10 15 3 0 6 5 7 11 10 10 11 11 11 8 4 2 -1 14
8 8 9 10 12 11 9 9 10 10 8 7 7 8 8 10 7 5 10 10 6 7 7 6 7 4 3 8 10 8 13 14 13 12 7 5 10 12 15 16 11 14 17 16 16 16 13 8 9 10 8 14 7 -1 11 2 -13 8 15 -1 3 11 3 -9 -1 17 12 0 3 3 5 15 10 -0 3 7 7 8 8 6 6 9 11 10 11 7 1 14
7 7 7 9 10 10 11 11 11 9 8 7 7 8 8 9 7 6 9 8 6 7 6 7 7 4 2 3 5 8 11 13 13 12 8 7 8 7 12 19 17 13 14 17 17 18 17 9 7 11 9 11 6 -1 8 5 -9 1 14 12 10 7 -1 -7 -4 5 3 -1 5 5 1 7 9 2 3 9 7 5 8 6 4 8 8 9 14 9 6 21
7 6 7 8 9 10 12 12 10 9 9 8 8 9 8 9 8 5 6 7 7 7 6 5 6 6 4 1 2 7 11 12 12 10 8 9 11 10 11 17 19 14 14 18 19 19 19 12 7 11 12 14 11 1 7 12 -1 -8 8 24 20 6 7 10 1 -5 1 4 1 2 2 1 4 4 2 6 5 3 7 7 4 8 9 8 13 9 9 29
6 6 7 8 8 9 11 10 8 9 10 9 9 9 7 10 10 5 6 9 11 10 5 3 4 5 7 4 2 6 10 10 12 15 14 11 12 14 11 8 11 14 15 19 22 21 18 11 6 9 15 18 15 8 12 20 11 -9 -7 19 28 11 5 17 15 2 1 8 8 5 6 5 5 6 2 3 2 -1 5 10 6 6 8 8 11 9 7 22
5 6 7 7 7 8 9 9 8 9 12 10 9 8 7 10 10 8 10 12 13 10 3 1 5 6 9 9 4 5 9 8 11 18 18 16 18 20 17 11 8 12 15 16 21 25 23 13 6 7 10 6 3 8 11 14 20 9 -11 -1 22 20 3 1 13 14 2 4 14 9 2 3 4 3 3 4 2 -2 2 9 7 4 6 7 8 11 9 9
6 6 7 7 7 8 8 10 11 11 11 9 8 7 8 10 10 10 12 13 12 10 5 4 8 9 11 10 4 4 9 9 10 15 15 13 17 21 23 20 12 8 9 8 11 22 25 19 12 11 8 -2 -4 9 11 5 17 20 -0 -7 4 14 12 -1 3 19 8 -4 11 11 -3 -3 0 -1 -0 2 2 1 1 4 6 5 4 4 5 9 12 11
6 7 7 7 7 7 8 10 12 11 9 8 8 9 9 9 8 8 15 20 16 10 7 6 9 12 10 8 6 6 9 7 7 13 13 9 12 14 14 18 16 10 8 7 8 15 21 19 17 14 8 1 2 10 8 5 17 17 2 1 4 5 15 9 -2 11 12 -3 2 6 -4 -4 4 6 4 1 -0 1 2 1 4 6 4 2 3 4 5 8
6 7 8 8 8 8 9 11 11 10 8 8 9 10 9 6 5 8 17 22 16 7 5 3 3 5 5 6 9 10 9 7 5 8 8 4 10 14 12 14 16 13 13 15 14 16 20 20 18 15 9 8 11 12 6 4 18 20 2 1 10 7 14 16 -0 -1 8 3 -1 3 4 5 8 13 12 6 2 0 1 1 -1 4 7 4 1 2 2 4
9 10 11 11 11 11 10 9 10 9 8 9 9 9 9 9 8 9 12 14 12 8 6 3 1 2 4 7 10 8 7 7 5 6 5 4 8 13 12 12 14 13 11 13 12 13 18 20 20 17 12 13 16 14 11 7 11 20 10 0 7 9 11 19 12 3 7 10 5 4 10 10 6 9 12 11 11 7 3 4 1 0 5 4 3 3 3 4
12 12 13 14 13 11 9 8 10 12 11 12 10 6 9 13 11 8 10 14 15 10 6 5 5 5 6 6 6 6 7 7 6 5 5 5 6 7 7 9 13 14 11 11 10 9 10 14 17 18 15 20 18 8 11 16 9 9 10 4 6 8 9 16 17 12 10 13 12 5 5 8 5 4 8 9 13 12 7 7 6 4 4 5 7 8 5 5
14 13 14 14 13 10 9 8 10 12 12 12 11 7 10 15 13 10 13 16 15 10 8 9 7 4 3 2 4 6 6 8 8 6 4 5 8 10 8 6 8 9 9 12 15 12 10 9 11 13 13 21 24 11 9 18 12 6 13 13 4 3 9 11 8 9 9 11 18 13 4 5 5 2 5 6 6 9 12 11 8 7 6 3 8 10 6 11
13 15 14 13 11 10 9 10 10 10 8 9 11 9 9 12 12 11 11 11 9 7 10 14 10 6 2 1 5 7 7 11 13 9 4 4 9 14 13 10 7 5 5 9 14 15 14 11 9 10 10 15 25 23 18 18 10 5 17 22 10 5 13 10 0 5 9 4 12 22 11 3 7 5 3 7 5 -0 2 6 8 10 5 2 9 11 5 15
11 14 14 11 10 10 10 9 10 10 7 9 12 10 9 9 9 10 9 9 9 5 7 14 15 12 7 3 6 7 6 10 12 10 8 8 10 12 14 16 16 10 5 4 8 12 15 15 12 10 7 8 18 24 23 23 13 3 12 20 17 15 16 9 0 4 12 4 2 18 21 9 9 8 2 8 11 0 -6 -2 6 11 5 1 8 7 2 11
10 13 15 15 14 11 9 9 10 9 5 8 13 9 7 8 7 7 7 11 13 8 8 13 12 10 8 4 6 6 7 13 15 13 10 9 10 8 8 15 19 17 13 8 6 7 9 13 16 15 10 5 11 17 19 24 21 11 12 12 14 21 15 5 5 4 7 9 -0 4 18 15 9 6 3 7 11 4 -1 -1 5 9 5 4 9 5 2 10
10 11 13 18 18 12 9 10 12 9 2 7 13 7 3 7 6 3 4 12 19 14 10 13 11 11 13 11 6 4 8 18 20 14 7 5 9 7 3 8 12 13 16 16 12 9 6 8 12 17 18 9 7 10 12 19 20 19 22 14 12 29 17 -3 6 7 -2 8 6 -2 5 11 9 7 3 6 8 4 0 -3 0 6 3 2 7 4 3 12
8 9 11 17 19 13 10 11 12 9 4 7 10 5 5 9 6 3 3 9 17 12 5 7 9 12 17 18 15 9 7 12 14 11 8 8 8 6 4 6 6 6 11 18 22 18 11 9 7 13 22 18 11 10 8 12 13 17 30 22 12 33 31 -1 -1 6 -4 0 9 4 3 4 7 9 4 3 6 3 -1 -4 -3 4 3 -1 2 5 4 9
8 8 8 13 17 14 11 11 12 10 6 7 6 4 9 11 4 3 4 6 11 10 4 3 5 7 7 7 9 9 5 8 12 11 9 8 6 4 5 7 6 5 6 11 20 20 13 11 9 10 19 20 16 15 11 13 12 9 22 24 8 23 37 12 -4 1 -2 -3 4 10 9 4 3 7 6 5 7 2 -2 -3 -4 1 4 -1 -1 5 5 1
Height
5891 5891 5890 5890 5889 5889 5888 5888 5887 5887 5887 5886 5886 5885 5885 5884 5884 5883 5883 5882 5882 5881 5881 5880 5880 5880 5880 5881 5881 5881 5881 5881 5882 5882 5883 5883 5884 5884 5886 5887 5888 5889 5889 5890 5891 5892 5893 5894 5894 5895 5895 5895 5895 5896 5896 5896 5896 5895 5895 5895 5895 5895 5895 5895 5894 5894 5894 5894 5894 5894 5895 5896 5897 5897 5898 5899 5899 5900 5901 5900 5900 5899 5899 5899 5899 5900 5899 5899
5891 5890 5890 5889 5889 5888 5888 5887 5886 5886 5886 5885 5885 5884 5884 5883 5883 5882 5881 5881 5880 5880 5879 5879 5879 5879 5879 5879 5879 5879 5880 5880 5880 5881 5881 5882 5882 5883 5884 5885 5886 5887 5888 5889 5890 5890 5891 5892 5893 5894 5894 5894 5895 5895 5895 5895 5895 5894 5894 5895 5895 5895 5895 5895 5894 5894 5893 5893 5893 5894 5895 5896 5896 5898 5898 5899 5899 5900 5901 5901 5900 5900 5900 5900 5900 5901 5900 5900
5891 5890 5889 5889 5888 5888 5887 5886 5886 5885 5885 5884 5884 5883 5883 5882 5881 5881 5880 5879 5879 5879 5878 5878 5877 5877 5877 5877 5877 5878 5878 5878 5879 5879 5879 5880 5881 5881 5882 5883 5884 5885 5886 5887 5888 5888 5889 5890 5891 5892 5893 5893 5894 5894 5894 5894 5894 5894 5894 5895 5895 5895 5895 5895 5894 5893 5892 5892 5893 5894 5894 5895 5895 5897 5898 5898 5899 5900 5901 5901 5901 5900 5900 5901 5902 5902 5901 5901
5890 5889 5889 5888 5887 5887 5886 5886 5885 5884 5884 5883 5883 5882 5881 5881 5880 5879 5878 5878 5877 5877 5876 5876 5876 5876 5875 5875 5875 5876 5876 5876 5877 5877 5878 5878 5879 5879 5880 5881 5882 5883 5884 5885 5886 5886 5887 5888 5889 5890 5891 5892 5893 5893 5893 5893 5894 5894 5894 5894 5895 5895 5895 5894 5893 5892 5891 5891 5892 5892 5892 5894 5895 5897 5898 5898 5898 5899 5901 5901 5901 5900 5900 5902 5903 5903 5903 5902
5890 5889 5888 5887 5887 5886 5885 5885 5884 5883 5883 5882 5881 5881 5880 5879 5878 5878 5877 5876 5875 5875 5874 5874 5874 5874 5873 5873 5873 5874 5874 5875 5875 5875 5876 5876 5876 5877 5878 5879 5880 5881 5882 5883 5884 5885 5885 5886 5887 5888 5889 5890 5891 5891 5891 5892 5893 5893 5893 5894 5895 5895 5894 5893 5893 5891 5890 5890 5890 5890 5891 5892 5894 5896 5897 5897 5898 5899 5900 5901 5901 5901 5901 5902 5903 5903 5903 5903
5889 5889 5888 5887 5886 5885 5884 5884 5883 5882 5881 5881 5880 5879 5878 5878 5877 5876 5875 5874 5874 5873 5872 5872 5872 5872 5871 5871 5872 5871 5872 5872 5873 5873 5873 5873 5873 5874 5875 5876 5877 5878 5879 5881 5882 5883 5884 5884 5885 5886 5886 5887 5888 5890 5891 5891 5892 5892 5892 5893 5894 5894 5893 5892 5892 5890 5889 5888 5888 5888 5889 5890 5892 5895 5897 5898 5899 5899 5899 5900 5901 5901 5901 5903 5904 5904 5903 5903
5889 5888 5887 5886 5885 5884 5883 5882 5882 5881 5880 5879 5878 5877 5877 5876 5875 5874 5873 5872 5872 5871 5870 5870 5870 5869 5869 5869 5869 5869 5869 5870 5870 5871 5871 5871 5871 5872 5873 5874 5875 5876 5877 5879 5880 5881 5882 5882 5883 5883 5884 5885 5887 5889 5889 5890 5890 5891 5891 5892 5893 5894 5892 5891 5892 5890 5888 5886 5884 5885 5887 5889 5891 5894 5896 5897 5899 5899 5898 5900 5901 5902 5902 5903 5904 5904 5904 5904
5889 5888 5887 5885 5884 5883 5882 5881 5880 5879 5878 5877 5877 5876 5875 5874 5873 5872 5871 5870 5869 5869 5868 5868 5867 5867 5867 5867 5866 5866 5866 5867 5867 5868 5869 5869 5869 5870 5871 5872 5873 5874 5875 5876 5878 5879 5880 5880 5880 5881 5882 5884 5886 5887 5887 5888 5889 5889 5890 5891 5892 5893 5892 5891 5891 5889 5888 5885 5883 5883 5885 5889 5892 5893 5895 5896 5898 5899 5898 5899 5901 5902 5902 5902 5904 5905 5905 5905
5889 5887 5886 5885 5884 5882 5881 5880 5879 5878 5877 5876 5875 5874 5873 5872 5871 5870 5869 5868 5867 5867 5866 5865 5865 5865 5864 5864 5864 5863 5863 5864 5865 5865 5866 5867 5868 5868 5868 5869 5870 5871 5873 5874 5876 5877 5877 5877 5877 5878 5880 5882 5884 5885 5885 5886 5887 5888 5889 5890 5891 5892 5892 5890 5890 5889 5887 5886 5884 5883 5885 5888 5891 5893 5894 5895 5897 5899 5898 5899 5901 5902 5902 5902 5904 5905 5905 5905
5888 5887 5885 5884 5883 5881 5880 5879 5878 5876 5875 5874 5873 5872 5871 5870 5869 5868 5867 5866 5865 5864 5864 5863 5862 5862 5862 5861 5861 5860 5860 5861 5862 5863 5864 5865 5866 5866 5866 5867 5868 5869 5870 5873 5874 5874 5873 5873 5874 5877 5879 5880 5882 5883 5884 5885 5886 5887 5888 5888 5890 5891 5891 5890 5890 5889 5888 5887 5885 5884 5886 5888 5890 5892 5894 5895 5897 5898 5898 5899 5900 5902 5902 5902 5903 5905 5905 5905
5887 5886 5885 5883 5882 5880 5879 5878 5876 5875 5874 5873 5871 5870 5869 5868 5867 5866 5865 5864 5863 5862 5861 5860 5860 5860 5859 5859 5858 5858 5857 5857 5858 5860 5861 5862 5863 5863 5864 5864 5865 5867 5868 5870 5871 5870 5870 5871 5873 5875 5877 5879 5881 5882 5883 5884 5884 5886 5886 5887 5888 5889 5890 5890 5890 5889 5889 5888 5887 5887 5887 5890 5891 5893 5894 5895 5897 5898 5897 5898 5900 5902 5903 5902 5902 5904 5904 5904
5886 5885 5883 5882 5880 5879 5878 5876 5875 5873 5872 5871 5870 5868 5867 5866 5865 5863 5862 5861 5860 5859 5858 5858 5857 5857 5856 5856 5856 5855 5854 5854 5856 5857 5858 5858 5859 5860 5861 5862 5863 5864 5865 5867 5867 5867 5868 5870 5872 5874 5876 5878 5879 5882 5883 5882 5883 5884 5885 5885 5887 5888 5889 5890 5889 5889 5889 5888 5889 5889 5889 5890 5892 5894 5895 5896 5897 5897 5897 5898 5900 5902 5903 5903 5902 5903 5904 5904
5885 5884 5882 5881 5879 5878 5876 5875 5873 5872 5870 5869 5868 5867 5865 5864 5862 5861 5860 5859 5858 5857 5856 5855 5855 5854 5854 5853 5853 5853 5852 5852 5853 5854 5855 5856 5856 5857 5858 5859 5860 5861 5862 5864 5864 5864 5866 5869 5871 5872 5875 5876 5877 5880 5881 5881 5882 5883 5884 5884 5885 5887 5887 5889 5889 5888 5889 5889 5889 5889 5890 5891 5892 5894 5895 5896 5897 5897 5897 5899 5900 5902 5903 5903 5903 5903 5905 5905
5884 5882 5881 5879 5878 5876 5874 5873 5872 5870 5869 5868 5866 5865 5863 5862 5860 5859 5857 5856 5855 5854 5854 5853 5852 5852 5851 5851 5851 5850 5850 5850 5850 5851 5852 5853 5854 5854 5855 5856 5857 5858 5859 5860 5861 5863 5865 5868 5870 5871 5873 5875 5876 5878 5879 5880 5881 5882 5883 5883 5884 5886 5887 5888 5888 5887 5888 5889 5889 5890 5891 5891 5892 5894 5894 5896 5897 5897 5898 5899 5900 5902 5903 5903 5903 5903 5904 5906
5882 5881 5879 5877 5876 5874 5873 5871 5870 5868 5867 5866 5864 5863 5861 5859 5858 5857 5855 5854 5853 5852 5851 5850 5850 5849 5849 5848 5848 5848 5848 5848 5848 5848 5849 5850 5851 5851 5852 5854 5854 5855 5857 5858 5859 5861 5864 5866 5868 5869 5870 5873 5874 5876 5877 5878 5879 5881 5881 5882 5883 5884 5886 5887 5887 5886 5887 5888 5889 5890 5891 5892 5893 5893 5894 5895 5897 5897 5898 5899 5900 5901 5902 5903 5903 5904 5905 5906
5881 5879 5877 5876 5874 5873 5871 5870 5868 5867 5865 5864 5862 5861 5859 5857 5856 5855 5853 5852 5851 5850 5849 5849 5848 5848 5847 5847 5847 5846 5846 5846 5846 5846 5847 5847 5848 5848 5849 5850 5852 5853 5855 5856 5857 5859 5862 5864 5865 5866 5868 5871 5872 5873 5875 5877 5878 5880 5880 5881 5882 5883 5884 5885 5885 5886 5887 5888 5888 5889 5890 5892 5893 5893 5894 5895 5896 5897 5898 5899 5900 5901 5901 5903 5904 5904 5905 5906
5879 5877 5876 5874 5873 5871 5869 5868 5866 5865 5863 5862 5860 5859 5857 5856 5854 5853 5851 5850 5849 5848 5848 5847 5847 5846 5846 5846 5845 5845 5845 5844 5844 5845 5845 5845 5846 5846 5846 5848 5849 5850 5852 5853 5854 5856 5859 5861 5862 5864 5865 5868 5870 5872 5874 5876 5878 5879 5880 5881 5882 5882 5883 5884 5885 5886 5886 5887 5887 5888 5889 5891 5892 5893 5894 5895 5895 5896 5897 5898 5899 5900 5901 5902 5903 5905 5906 5906
5877 5876 5874 5873 5871 5869 5868 5866 5865 5863 5862 5860 5858 5857 5855 5854 5852 5851 5850 5849 5848 5847 5846 5846 5845 5845 5844 5844 5844 5844 5844 5844 5843 5843 5843 5844 5844 5844 5844 5845 5846 5847 5849 5850 5852 5854 5856 5858 5860 5861 5862 5866 5869 5872 5875 5876 5876 5877 5878 5879 5879 5880 5881 5883 5884 5885 5885 5886 5887 5887 5887 5889 5890 5892 5893 5894 5894 5895 5896 5897 5898 5900 5900 5901 5903 5904 5906 5907
5876 5874 5873 5871 5869 5868 5866 5865 5863 5862 5860 5858 5856 5855 5854 5852 5851 5850 5848 5847 5847 5846 5845 5845 5845 5844 5843 5843 5843 5842 5842 5842 5842 5842 5842 5842 5842 5842 5842 5843 5843 5845 5846 5848 5849 5850 5852 5854 5857 5858 5860 5865 5870 5872 5873 5873 5873 5874 5875 5876 5877 5878 5879 5880 5882 5883 5884 5885 5885 5886 5886 5887 5889 5890 5891 5892 5893 5894 5895 5896 5898 5899 5900 5901 5902 5904 5905 5906
5874 5873 5871 5869 5868 5866 5865 5863 5862 5860 5858 5857 5855 5854 5852 5851 5850 5849 5847 5846 5845 5845 5844 5844 5844 5843 5842 5842 5842 5841 5841 5841 5841 5841 5840 5841 5841 5841 5841 5841 5841 5842 5843 5844 5845 5847 5849 5852 5855 5857 5860 5865 5869 5869 5869 5869 5870 5872 5874 5875 5876 5876 5877 5878 5880 5882 5882 5883 5884 5885 5886 5887 5887 5889 5890 5891 5892 5893 5895 5896 5897 5899 5900 5900 5902 5903 5904 5906
5873 5871 5870 5868 5866 5865 5863 5862 5860 5859 5857 5855 5854 5852 5851 5850 5849 5848 5847 5845 5844 5843 5843 5843 5843 5843 5842 5841 5840 5840 5840 5840 5840 5839 5839 5839 5839 5839 5839 5839 5840 5840 5841 5842 5844 5846 5848 5851 5855 5858 5861 5864 5866 5865 5866 5867 5868 5871 5872 5873 5874 5875 5876 5877 5879 5881 5880 5881 5883 5885 5885 5886 5886 5887 5888 5889 5891 5893 5894 5896 5897 5898 5899 5900 5901 5903 5904 5905
5871 5870 5868 5867 5865 5863 5862 5860 5859 5857 5856 5854 5853 5851 5850 5849 5847 5846 5846 5844 5843 5842 5842 5842 5842 5842 5841 5840 5839 5839 5839 5839 5838 5838 5838 5838 5838 5838 5838 5838 5838 5839 5840 5841 5843 5845 5848 5852 5856 5857 5858 5860 5862 5862 5864 5865 5867 5869 5870 5872 5873 5874 5875 5876 5877 5878 5878 5880 5883 5884 5883 5884 5885 5886 5886 5888 5890 5892 5893 5895 5896 5898 5899 5900 5901 5902 5903 5905
5870 5868 5867 5865 5864 5862 5860 5859 5857 5856 5854 5853 5851 5850 5849 5848 5846 5845 5844 5843 5842 5842 5842 5841 5841 5841 5841 5840 5838 5837 5837 5837 5836 5836 5836 5836 5836 5836 5837 5837 5837 5838 5839 5840 5842 5844 5846 5849 5851 5852 5853 5856 5858 5860 5862 5864 5866 5868 5869 5871 5873 5874 5874 5874 5875 5875 5877 5879 5881 5882 5881 5882 5884 5884 5885 5886 5888 5890 5892 5893 5895 5896 5898 5899 5900 5902 5903 5904
5868 5867 5865 5864 5862 5861 5859 5857 5856 5855 5853 5852 5850 5849 5848 5847 5845 5844 5843 5842 5841 5841 5841 5841 5840 5840 5839 5838 5837 5836 5835 5835 5835 5835 5835 5835 5834 5835 5836 5836 5836 5837 5838 5839 5840 5842 5844 5845 5845 5847 5849 5852 5854 5856 5858 5861 5864 5866 5868 5871 5872 5873 5873 5873 5873 5874 5875 5877 5879 5880 5880 5881 5882 5883 5884 5885 5886 5888 5890 5892 5893 5895 5897 5899 5899 5901 5903 5904
5867 5865 5864 5862 5861 5859 5858 5856 5855 5853 5852 5851 5849 5848 5847 5846 5845 5843 5842 5842 5841 5840 5840 5840 5839 5839 5838 5837 5836 5835 5834 5834 5833 5833 5833 5833 5833 5834 5834 5834 5835 5836 5837 5838 5839 5841 5842 5843 5845 5846 5848 5850 5852 5854 5856 5859 5861 5863 5867 5870 5871 5871 5871 5871 5872 5873 5874 5875 5877 5879 5879 5879 5881 5882 5883 5883 5885 5886 5888 5890 5892 5893 5895 5897 5899 5900 5902 5903
5865 5864 5862 5861 5859 5858 5857 5855 5853 5852 5851 5849 5848 5848 5847 5846 5844 5843 5842 5841 5841 5840 5839 5838 5838 5837 5837 5836 5835 5834 5833 5833 5832 5832 5832 5832 5832 5832 5833 5833 5834 5835 5836 5837 5838 5839 5840 5842 5843 5845 5846 5848 5850 5852 5854 5857 5860 5863 5866 5868 5869 5869 5869 5870 5870 5872 5873 5874 5876 5877 5878 5878 5880 5881 5882 5882 5883 5884 5886 5888 5890 5891 5893 5896 5898 5899 5901 5902
5864 5862 5861 5859 5858 5857 5855 5853 5852 5850 5849 5848 5848 5846 5845 5845 5844 5843 5843 5841 5840 5839 5838 5837 5836 5835 5835 5834 5833 5832 5832 5832 5831 5831 5831 5831 5831 5831 5831 5832 5833 5834 5835 5836 5837 5837 5839 5841 5842 5843 5844 5846 5848 5851 5853 5855 5858 5861 5864 5865 5866 5867 5868 5869 5870 5871 5872 5873 5874 5875 5876 5877 5879 5880 5881 5882 5882 5883 5884 5886 5888 5890 5891 5894 5896 5898 5899 5901
5862 5861 5859 5858 5856 5855 5854 5852 5851 5849 5848 5847 5846 5845 5844 5843 5843 5843 5843 5841 5840 5839 5837 5836 5835 5834 5833 5833 5832 5831 5831 5831 5830 5830 5830 5830 5829 5830 5830 5831 5832 5833 5835 5835 5835 5836 5838 5839 5840 5841 5842 5844 5847 5850 5852 5854 5857 5859 5860 5862 5863 5864 5867 5868 5868 5869 5869 5870 5872 5874 5875 5876 5878 5879 5880 5881 5882 5882 5883 5884 5886 5887 5889 5891 5894 5896 5898 5899
5860 5859 5858 5856 5855 5854 5852 5851 5849 5848 5847 5845 5844 5844 5843 5842 5841 5841 5841 5840 5839 5838 5837 5835 5834 5833 5833 5832 5831 5831 5830 5830 5829 5829 5829 5829 5829 5829 5829 5830 5831 5832 5833 5834 5834 5835 5837 5837 5839 5841 5842 5844 5846 5849 5850 5852 5856 5856 5855 5858 5860 5862 5864 5865 5865 5867 5867 5869 5871 5873 5874 5876 5877 5878 5879 5880 5881 5882 5882 5882 5883 5885 5887 5889 5891 5893 5895 5897
5859 5857 5856 5855 5854 5852 5851 5849 5848 5846 5845 5844 5843 5843 5842 5841 5840 5839 5838 5838 5838 5837 5836 5835 5833 5833 5832 5832 5831 5831 5830 5829 5829 5829 5828 5828 5828 5828 5829 5829 5829 5830 5831 5832 5833 5834 5836 5837 5839 5841 5843 5845 5846 5847 5848 5850 5853 5852 5852 5854 5857 5860 5862 5862 5863 5864 5865 5867 5870 5872 5873 5874 5876 5877 5878 5879 5880 5880 5881 5881 5881 5882 5884 5886 5888 5891 5893 5895
5857 5855 5854 5853 5852 5851 5850 5848 5846 5845 5844 5843 5842 5842 5841 5840 5839 5838 5837 5836 5836 5836 5835 5834 5832 5832 5831 5831 5830 5830 5830 5829 5828 5828 5828 5828 5828 5828 5828 5828 5829 5830 5830 5831 5832 5834 5835 5837 5839 5840 5842 5843 5844 5845 5846 5848 5850 5851 5851 5852 5854 5857 5859 5859 5860 5861 5863 5866 5869 5871 5871 5872 5874 5876 5876 5877 5878 5879 5879 5880 5880 5881 5882 5885 5887 5889 5891 5893
5855 5854 5852 5851 5850 5850 5848 5847 5845 5844 5842 5841 5841 5841 5840 5839 5838 5837 5835 5835 5835 5834 5833 5832 5831 5831 5830 5829 5829 5828 5829 5829 5828 5828 5828 5828 5828 5827 5827 5827 5828 5829 5830 5831 5832 5834 5835 5836 5838 5839 5840 5840 5841 5843 5845 5847 5848 5849 5850 5850 5852 5854 5855 5856 5858 5860 5863 5866 5868 5869 5869 5870 5872 5874 5874 5875 5877 5878 5878 5879 5879 5880 5881 5883 5884 5886 5888 5890
5853 5852 5851 5850 5849 5848 5847 5845 5844 5842 5841 5840 5839 5839 5838 5838 5837 5836 5835 5834 5833 5832 5832 5831 5830 5830 5829 5828 5828 5828 5827 5828 5828 5828 5828 5828 5827 5827 5826 5827 5827 5828 5829 5830 5831 5833 5834 5835 5837 5838 5838 5839 5840 5842 5844 5846 5847 5848 5848 5848 5849 5851 5853 5855 5858 5860 5863 5865 5866 5866 5866 5868 5871 5872 5873 5874 5875 5876 5877 5877 5877 5878 5879 5881 5882 5884 5885 5887
5851 5850 5849 5848 5847 5846 5845 5844 5842 5841 5840 5839 5838 5838 5837 5837 5836 5835 5834 5833 5832 5832 5832 5831 5830 5829 5829 5828 5827 5827 5827 5827 5827 5828 5828 5827 5827 5826 5825 5826 5827 5827 5828 5829 5830 5831 5833 5834 5836 5836 5837 5839 5840 5841 5842 5844 5846 5847 5846 5846 5847 5849 5853 5855 5857 5860 5863 5863 5864 5864 5864 5867 5870 5871 5873 5873 5874 5875 5876 5876 5876 5877 5878 5879 5880 5881 5883 5884
5849 5848 5847 5846 5845 5844 5843 5842 5841 5840 5838 5837 5837 5836 5836 5835 5835 5834 5834 5832 5832 5831 5831 5830 5829 5829 5829 5828 5827 5827 5827 5826 5826 5827 5827 5827 5826 5825 5825 5825 5826 5827 5828 5829 5829 5830 5831 5833 5834 5835 5837 5838 5840 5840 5840 5841 5844 5844 5845 5846 5847 5848 5851 5854 5855 5858 5860 5861 5862 5863 5864 5867 5869 5870 5871 5872 5873 5874 5875 5875 5875 5875 5876 5877 5879 5879 5880 5881
5847 5846 5845 5844 5843 5842 5841 5841 5839 5838 5837 5836 5835 5835 5834 5834 5833 5832 5832 5831 5830 5830 5830 5829 5828 5827 5827 5828 5827 5827 5826 5826 5826 5826 5826 5826 5826 5825 5824 5824 5825 5826 5827 5827 5828 5829 5830 5832 5833 5835 5836 5838 5839 5839 5839 5841 5841 5842 5844 5845 5845 5847 5850 5852 5854 5855 5857 5859 5861 5862 5864 5867 5868 5869 5870 5871 5872 5872 5873 5874 5874 5874 5875 5876 5877 5878 5878 5878
5845 5844 5843 5842 5841 5840 5839 5839 5838 5836 5835 5834 5834 5833 5833 5833 5832 5831 5830 5829 5829 5829 5828 5828 5827 5826 5825 5826 5826 5826 5825 5825 5825 5825 5825 5825 5825 5824 5823 5823 5824 5825 5826 5827 5827 5828 5830 5831 5832 5834 5835 5836 5837 5837 5838 5840 5839 5841 5843 5842 5842 5845 5847 5849 5852 5853 5855 5857 5859 5861 5864 5866 5867 5868 5868 5869 5870 5871 5872 5873 5874 5874 5874 5875 5876 5876 5876 5876
5843 5842 5841 5840 5839 5838 5837 5836 5835 5834 5833 5832 5832 5832 5831 5831 5830 5829 5829 5828 5828 5827 5827 5826 5826 5825 5824 5824 5825 5825 5825 5824 5824 5824 5824 5824 5824 5824 5823 5822 5823 5824 5825 5826 5827 5828 5829 5830 5831 5833 5834 5835 5835 5836 5836 5837 5838 5839 5840 5840 5841 5843 5845 5846 5848 5850 5853 5855 5857 5860 5863 5864 5865 5866 5866 5867 5868 5869 5870 5871 5872 5873 5873 5874 5875 5875 5875 5874
5840 5839 5839 5838 5837 5836 5835 5834 5833 5832 5831 5830 5830 5830 5830 5829 5829 5828 5827 5826 5826 5826 5825 5825 5824 5824 5823 5823 5823 5824 5824 5823 5823 5823 5822 5822 5822 5822 5822 5821 5822 5823 5824 5824 5825 5827 5828 5829 5830 5832 5832 5833 5834 5834 5834 5834 5835 5835 5836 5838 5840 5842 5843 5844 5845 5848 5851 5853 5856 5859 5861 5862 5863 5864 5865 5865 5866 5868 5869 5870 5871 5872 5872 5873 5873 5874 5874 5874
5837 5836 5836 5836 5835 5834 5833 5832 5831 5830 5829 5828 5827 5827 5828 5827 5827 5826 5825 5824 5824 5824 5823 5823 5823 5823 5823 5822 5821 5822 5823 5822 5822 5821 5821 5821 5821 5821 5821 5820 5821 5822 5822 5823 5823 5825 5826 5828 5829 5830 5831 5831 5831 5832 5832 5831 5830 5831 5833 5836 5838 5840 5842 5842 5844 5847 5849 5851 5854 5857 5858 5859 5861 5863 5864 5864 5865 5866 5867 5868 5869 5871 5871 5872 5873 5874 5874 5875
5834 5833 5833 5832 5832 5831 5830 5830 5829 5828 5827 5825 5825 5825 5825 5825 5825 5825 5824 5823 5823 5822 5821 5821 5822 5822 5821 5821 5820 5819 5820 5821 5821 5820 5820 5820 5820 5820 5820 5820 5820 5820 5821 5821 5821 5822 5823 5825 5826 5828 5829 5829 5828 5828 5830 5828 5826 5828 5832 5834 5836 5838 5840 5842 5844 5846 5847 5849 5851 5854 5856 5857 5859 5861 5862 5863 5864 5864 5865 5867 5868 5869 5870 5871 5871 5872 5874 5875
5830 5830 5829 5829 5829 5829 5828 5827 5826 5825 5824 5823 5822 5822 5822 5822 5823 5822 5822 5821 5821 5821 5820 5819 5820 5820 5820 5820 5819 5818 5818 5819 5819 5819 5819 5818 5818 5818 5818 5818 5818 5819 5819 5820 5820 5820 5821 5822 5823 5824 5825 5825 5824 5825 5826 5824 5824 5827 5831 5833 5834 5836 5838 5841 5843 5844 5845 5846 5849 5852 5853 5854 5856 5858 5860 5861 5861 5862 5864 5865 5867 5868 5868 5869 5869 5869 5870 5871
5826 5826 5826 5826 5826 5826 5825 5825 5823 5822 5821 5820 5820 5820 5819 5819 5819 5819 5820 5820 5819 5818 5818 5818 5818 5818 5818 5819 5818 5817 5817 5817 5817 5818 5818 5817 5817 5817 5817 5817 5817 5817 5817 5818 5818 5819 5819 5820 5820 5821 5821 5822 5822 5822 5823 5822 5823 5827 5830 5831 5833 5834 5836 5839 5842 5844 5844 5845 5848 5850 5850 5851 5854 5856 5858 5859 5859 5860 5862 5864 5865 5866 5866 5866 5866 5866 5867 5868
5822 5822 5821 5822 5823 5823 5822 5821 5820 5819 5818 5817 5817 5818 5817 5817 5817 5817 5817 5818 5817 5815 5816 5816 5816 5816 5816 5817 5817 5817 5816 5816 5816 5816 5816 5816 5816 5817 5816 5816 5816 5815 5815 5816 5816 5817 5817 5817 5818 5818 5818 5819 5819 5819 5819 5819 5821 5825 5827 5829 5831 5832 5834 5837 5840 5842 5843 5843 5845 5847 5847 5850 5852 5854 5856 5857 5857 5858 5859 5861 5863 5863 5864 5864 5864 5865 5865 5866
5819 5818 5817 5818 5819 5819 5818 5817 5816 5815 5814 5815 5815 5815 5815 5815 5815 5815 5815 5815 5814 5813 5813 5814 5814 5814 5814 5814 5815 5816 5815 5815 5815 5815 5814 5814 5815 5815 5815 5815 5815 5814 5813 5813 5814 5815 5815 5815 5815 5815 5815 5815 5815 5815 5816 5816 5819 5823 5824 5826 5828 5830 5832 5835 5837 5839 5841 5841 5842 5844 5846 5848 5851 5852 5853 5854 5855 5855 5856 5859 5860 5861 5861 5861 5862 5864 5864 5864
5815 5815 5814 5815 5815 5815 5814 5813 5812 5812 5812 5813 5813 5812 5813 5813 5812 5812 5812 5812 5812 5811 5811 5811 5811 5812 5812 5812 5813 5814 5814 5814 5814 5813 5813 5812 5813 5813 5813 5813 5813 5812 5812 5812 5813 5813 5813 5813 5813 5813 5812 5812 5813 5813 5813 5812 5815 5819 5822 5824 5826 5829 5831 5833 5835 5837 5838 5839 5840 5841 5844 5847 5849 5850 5851 5851 5852 5853 5854 5856 5858 5858 5858 5858 5860 5862 5863 5864
5812 5812 5812 5811 5810 5811 5810 5809 5809 5809 5810 5811 5810 5810 5810 5810 5810 5809 5810 5810 5809 5808 5808 5809 5809 5809 5809 5810 5810 5811 5812 5812 5812 5812 5811 5811 5811 5811 5811 5811 5811 5811 5810 5811 5811 5812 5812 5811 5811 5811 5811 5811 5810 5810 5810 5811 5813 5817 5819 5821 5824 5827 5830 5832 5834 5835 5836 5837 5837 5838 5841 5845 5847 5848 5848 5849 5850 5852 5853 5853 5854 5856 5857 5857 5858 5860 5861 5862
5808 5809 5808 5807 5807 5807 5807 5806 5806 5807 5806 5807 5807 5807 5807 5807 5807 5807 5807 5807 5807 5806 5806 5806 5806 5806 5807 5808 5808 5809 5811 5811 5810 5810 5810 5810 5810 5809 5809 5809 5809 5809 5809 5810 5810 5810 5810 5810 5810 5809 5809 5809 5808 5807 5807 5810 5813 5816 5818 5819 5821 5824 5827 5829 5831 5833 5834 5834 5835 5837 5839 5842 5844 5845 5846 5847 5848 5850 5851 5851 5851 5853 5855 5856 5856 5856 5857 5858
5805 5805 5805 5804 5803 5803 5803 5803 5804 5804 5802 5803 5805 5805 5804 5803 5803 5803 5803 5804 5805 5803 5803 5804 5804 5804 5805 5806 5807 5808 5809 5809 5809 5809 5808 5808 5808 5808 5808 5808 5808 5808 5808 5808 5808 5808 5808 5808 5808 5808 5808 5807 5806 5805 5806 5809 5812 5815 5816 5818 5819 5821 5824 5826 5828 5830 5832 5832 5833 5835 5837 5839 5841 5842 5843 5844 5845 5847 5848 5848 5849 5849 5851 5852 5854 5854 5855 5855
5801 5801 5801 5801 5800 5799 5799 5799 5800 5800 5798 5799 5802 5802 5801 5800 5800 5799 5799 5801 5802 5802 5801 5802 5803 5802 5803 5804 5805 5806 5807 5808 5807 5807 5807 5807 5807 5806 5806 5807 5807 5806 5806 5806 5806 5806 5806 5806 5806 5806 5806 5805 5803 5803 5804 5807 5810 5812 5813 5814 5817 5819 5821 5823 5825 5827 5829 5830 5831 5833 5834 5836 5837 5839 5840 5841 5842 5844 5845 5846 5846 5847 5847 5849 5851 5852 5853 5853
5797 5797 5797 5798 5797 5795 5795 5796 5797 5797 5795 5796 5798 5798 5798 5799 5798 5797 5797 5798 5800 5800 5800 5801 5801 5800 5801 5802 5803 5804 5805 5806 5805 5805 5805 5805 5805 5805 5805 5805 5806 5805 5804 5804 5804 5804 5804 5804 5804 5804 5804 5803 5801 5801 5802 5805 5807 5808 5809 5812 5815 5816 5817 5819 5821 5824 5825 5827 5828 5830 5831 5833 5834 5836 5837 5838 5839 5841 5842 5843 5843 5844 5845 5846 5848 5850 5852 5852
5793 5793 5794 5794 5794 5792 5792 5793 5794 5793 5792 5793 5794 5795 5796 5797 5797 5797 5796 5796 5797 5799 5798 5799 5799 5798 5799 5800 5800 5802 5802 5803 5803 5803 5803 5803 5803 5803 5803 5804 5804 5804 5803 5802 5802 5802 5802 5802 5802 5802 5802 5801 5800 5799 5799 5802 5804 5805 5806 5809 5812 5813 5814 5816 5819 5821 5823 5824 5825 5827 5828 5830 5831 5834 5835 5835 5837 5838 5839 5840 5841 5841 5843 5844 5845 5848 5850 5851